Location: Rehoboth Beach
(38.7438°N, 75.1341°W)
Time: 04:10:20
(UTC-05:00)

Hubble Space Telescope - Visible Passes

Search period start: 06 February 2016 00:00
Search period end: 16 February 2016 00:00
Orbit: 540 x 544 km, 28.5° (Epoch: 05 February)

Date Brightness Start Highest point End Pass type
(mag) Time Alt. Az. Time Alt. Az. Time Alt. Az.
12 Feb 3.3 18:21:12 10° SSE 18:21:41 10° SSE 18:22:10 10° SSE visible
12 Feb 3.4 19:59:19 10° SW 20:00:01 13° SSW 20:00:01 13° SSW visible
13 Feb 3.2 18:10:27 10° S 18:12:07 12° SSE 18:13:47 10° SE visible
13 Feb 3.1 19:49:42 10° SW 19:51:14 16° SSW 19:51:14 16° SSW visible
14 Feb 3.1 18:00:22 10° SSW 18:02:33 14° SSE 18:04:46 10° SE visible
14 Feb 2.8 19:40:08 10° SW 19:42:25 19° SSW 19:42:25 19° SSW visible
15 Feb 2.7 19:30:37 10° SW 19:33:36 20° S 19:33:36 20° S visible
